DW6276 Weather Reports


Display with metric or nautical units.
time (UTC)temp
F
wind
direction
speed
MPH
gust
MPH
rain 1hr
in
rain 24hr
in
rain mn
in
humidity
%
barometer
mb
20260831141016 75 270 3.0 5.0 0.00 0.00 0.00 89 1010.3
20260831140016 74 270 3.0 5.0 0.00 0.00 0.00 89 1010.2
20260831135016 74 270 3.0 4.0 0.00 0.00 0.00 90 1010.2
20260831134016 74 270 2.0 4.0 0.00 0.00 0.00 91 1009.8
20260831133016 73 270 2.0 4.0 0.00 0.00 0.00 91 1009.8
20260831132016 72 270 2.0 4.0 0.00 0.00 0.00 92 1009.6
20260831131016 72 0.0 2.0 0.00 0.00 0.00 92 1009.5
20260831130016 72 0.0 2.0 0.00 0.00 0.00 92 1009.3
20260831125016 72 0.0 2.0 0.00 0.00 0.00 93 1009.3
20260831124016 70 0.0 0.0 0.00 0.00 0.00 93 1009.3
20260831123017 69 0.0 2.0 0.00 0.00 0.00 93 1009.1
20260831122016 69 0.0 2.0 0.00 0.00 0.00 92 1009.0
20260831121016 69 0.0 0.0 0.00 0.00 0.00 93 1009.1
20260831120016 68 0.0 0.0 0.00 0.00 0.00 92 1008.9
20260831115016 69 0.0 0.0 0.00 0.00 0.00 92 1008.8
20260831114516 69 0.0 0.0 0.00 0.00 0.00 92 1008.7
20260831113536 69 0.0 2.0 0.00 0.00 0.00 92 1008.7
20260831112516 70 0 1.0 2.0 0.00 0.00 0.00 92 1008.4
20260831111516 70 0.0 1.0 0.00 0.00 0.00 92 1008.2
20260831110516 70 0.0 2.0 0.00 0.00 0.00 92 1008.2
20260831105516 70 180 1.0 2.0 0.00 0.00 0.00 92 1008.2
20260831104516 70 0.0 1.0 0.00 0.00 0.00 92 1008.1
20260831103516 70 180 1.0 2.0 0.00 0.00 0.00 92 1008.1
20260831102516 70 180 1.0 2.0 0.00 0.00 0.00 92 1008.1
20260831101516 71 0.0 2.0 0.00 0.00 0.00 91 1008.1
20260831100516 71 0.0 2.0 0.00 0.00 0.00 92 1008.2
20260831095516 71 0.0 2.0 0.00 0.00 0.00 92 1008.1
20260831094516 71 180 1.0 3.0 0.00 0.00 0.00 91 1008.1
20260831093536 71 0 1.0 2.0 0.00 0.00 0.00 91 1008.2
20260831092516 71 0.0 2.0 0.00 0.00 0.00 91 1008.2
20260831091516 72 203 2.0 4.0 0.00 0.00 0.00 91 1008.2
20260831090516 72 0 2.0 5.0 0.00 0.00 0.00 91 1008.3
20260831085516 72 225 2.0 4.0 0.00 0.00 0.00 91 1008.0
20260831084516 72 203 2.0 4.0 0.00 0.00 0.00 91 1008.0
20260831083516 72 225 2.0 4.0 0.00 0.00 0.00 91 1007.9
20260831082516 72 225 3.0 7.0 0.00 0.00 0.00 91 1007.9
20260831081516 72 0 4.0 7.0 0.00 0.00 0.00 91 1007.8
20260831080516 72 203 3.0 5.0 0.00 0.00 0.00 91 1007.8
20260831075516 72 225 2.0 5.0 0.00 0.00 0.00 91 1007.9
20260831074516 72 225 3.0 5.0 0.00 0.00 0.00 91 1007.8
20260831073516 72 0 3.0 6.0 0.00 0.00 0.00 91 1007.7
20260831072516 72 0 4.0 9.0 0.00 0.00 0.00 90 1007.6
20260831071516 72 0 3.0 8.0 0.00 0.00 0.00 90 1007.7
20260831070516 73 0 3.0 7.0 0.00 0.00 0.00 90 1007.7
20260831065516 73 0 3.0 7.0 0.00 0.00 0.00 90 1007.9
20260831064516 73 203 4.0 6.0 0.00 0.00 0.00 90 1007.9
20260831063556 73 180 3.0 7.0 0.00 0.00 0.00 90 1008.1
20260831062516 73 203 4.0 7.0 0.00 0.00 0.00 90 1008.2
20260831061516 73 203 3.0 6.0 0.00 0.00 0.00 90 1008.1
20260831060516 73 203 3.0 5.0 0.00 0.00 0.00 90 1008.2
20260831055515 73 180 3.0 6.0 0.00 0.00 0.00 89 1008.3
20260831054535 73 180 4.0 7.0 0.00 0.00 0.00 89 1008.5
20260831053515 73 180 3.0 5.0 0.00 0.00 0.00 89 1008.6
20260831052555 73 180 3.0 9.0 0.00 0.00 0.00 89 1008.7
20260831051515 74 180 4.0 7.0 0.00 0.00 0.00 89 1008.6
20260831050556 74 180 4.0 7.0 0.00 0.00 0.00 88 1008.6
20260831045516 74 180 5.0 9.0 0.00 0.00 0.00 88 1008.6
20260831044516 74 0 3.0 7.0 0.00 0.00 0.00 88 1008.7
20260831043556 74 180 5.0 7.0 0.00 0.00 0.00 88 1008.9
20260831042556 74 180 4.0 6.0 0.00 0.00 0.00 88 1008.8
20260831041516 75 180 6.0 10.0 0.00 0.00 0.00 87 1008.8
20260831040516 74 180 5.0 9.0 0.00 0.00 0.00 88 1008.8
20260831035516 74 0 5.0 9.0 0.00 0.00 0.00 88 1008.6
20260831034536 74 0 5.0 9.0 0.00 0.00 0.00 88 1008.7
20260831033516 74 180 5.0 10.0 0.00 0.00 0.00 88 1008.7
20260831032516 74 0 6.0 12.0 0.00 0.00 0.00 88 1008.4
20260831031516 74 0 6.0 11.0 0.00 0.00 0.00 87 1008.4
20260831030536 74 180 5.0 10.0 0.00 0.00 0.00 87 1008.5
20260831025516 75 158 5.0 8.0 0.00 0.00 0.00 87 1008.5
20260831024516 75 180 5.0 9.0 0.00 0.00 0.00 86 1008.5
20260831023516 75 158 5.0 7.0 0.00 0.00 0.00 85 1008.3
20260831022516 76 158 5.0 10.0 0.00 0.00 0.00 85 1008.3
20260831021516 76 158 6.0 10.0 0.00 0.00 0.00 84 1008.5
20260831020516 76 158 6.0 12.0 0.00 0.00 0.00 84 1008.5
20260831015516 76 158 5.0 8.0 0.00 0.00 0.00 83 1008.3
20260831014516 77 158 4.0 7.0 0.00 0.00 0.00 83 1008.2
20260831013516 77 158 6.0 9.0 0.00 0.00 0.00 83 1008.2
20260831012516 77 158 4.0 7.0 0.00 0.00 0.00 83 1008.2
20260831011516 77 158 4.0 7.0 0.00 0.00 0.00 83 1008.2
20260831010516 78 180 4.0 6.0 0.00 0.00 0.00 83 1008.0
20260831005516 78 158 4.0 6.0 0.00 0.00 0.00 82 1007.9
20260831004516 79 158 3.0 6.0 0.00 0.00 0.00 81 1007.7
20260831003556 79 158 5.0 7.0 0.00 0.00 0.00 80 1007.8
20260831002516 80 158 5.0 9.0 0.00 0.00 0.00 79 1007.3
20260831001516 80 158 3.0 6.0 0.00 0.00 0.00 78 1007.8
20260831000516 81 0 4.0 7.0 0.00 0.00 0.00 77 1008.0
20260830235516 81 0 5.0 9.0 0.00 0.00 0.00 76 1007.7
20260830234516 82 180 3.0 6.0 0.00 0.00 0.00 75 1007.7
20260830233515 83 180 5.0 10.0 0.00 0.00 0.00 73 1007.7
20260830232515 83 180 5.0 8.0 0.00 0.00 0.00 73 1007.5
20260830231516 84 180 5.0 12.0 0.00 0.00 0.00 71 1007.5
20260830230515 84 158 4.0 8.0 0.00 0.00 0.00 73 1007.6
20260830225516 83 158 4.0 6.0 0.00 0.00 0.00 73 1007.6
20260830224515 83 180 4.0 7.0 0.00 0.00 0.00 72 1007.6
20260830223515 84 180 5.0 11.0 0.00 0.00 0.00 70 1007.5
20260830222516 84 180 6.0 10.0 0.00 0.00 0.00 69 1007.5
20260830221535 86 158 6.0 10.0 0.00 0.00 0.00 70 1007.5
20260830220515 86 158 7.0 12.0 0.00 0.00 0.00 69 1007.3
20260830215515 87 158 7.0 14.0 0.00 0.00 0.00 69 1007.6
20260830214515 88 158 5.0 10.0 0.00 0.00 0.00 68 1007.5
20260830213535 88 180 6.0 10.0 0.00 0.00 0.00 68 1007.6
20260830212515 88 158 6.0 9.0 0.00 0.00 0.00 68 1007.5
20260830211515 88 180 6.0 9.0 0.00 0.00 0.00 68 1007.5
20260830210555 88 158 6.0 10.0 0.00 0.00 0.00 68 1007.5
20260830205535 88 113 4.0 7.0 0.00 0.00 0.00 72 1007.6
20260830204535 87 113 5.0 11.0 0.00 0.00 0.00 72 1007.6
20260830203515 87 113 6.0 10.0 0.00 0.00 0.00 71 1007.6
20260830202515 87 135 5.0 8.0 0.00 0.00 0.00 72 1007.7
20260830201515 87 113 5.0 10.0 0.00 0.00 0.00 71 1007.8
20260830200515 87 113 6.0 11.0 0.00 0.00 0.00 70 1007.9
20260830195515 86 158 5.0 10.0 0.00 0.00 0.00 71 1008.0
20260830194515 86 135 5.0 8.0 0.00 0.00 0.00 75 1008.2
20260830193515 86 135 7.0 10.0 0.00 0.00 0.00 73 1008.3
20260830192517 85 135 8.0 14.0 0.00 0.00 0.00 74 1008.1
20260830191537 85 113 7.0 11.0 0.00 0.00 0.00 76 1008.1
20260830190517 85 113 6.0 11.0 0.00 0.00 0.00 77 1008.1
20260830185557 85 113 5.0 9.0 0.00 0.00 0.00 75 1008.2
20260830184517 85 113 4.0 7.0 0.00 0.00 0.00 78 1008.1
20260830183517 84 90 6.0 9.0 0.00 0.00 0.00 77 1008.0
20260830182517 84 90 5.0 10.0 0.00 0.00 0.00 78 1008.0
20260830181517 84 113 5.0 9.0 0.00 0.00 0.00 76 1008.4
20260830180517 83 90 4.0 9.0 0.00 0.00 0.00 77 1008.3
20260830175517 83 113 6.0 10.0 0.00 0.00 0.00 77 1008.8
20260830174517 82 135 5.0 9.0 0.00 0.00 0.00 78 1009.1
20260830173517 82 113 6.0 10.0 0.00 0.00 0.00 79 1008.7
20260830172537 82 113 6.0 10.0 0.00 0.00 0.00 78 1008.8
20260830171537 80 113 6.0 9.0 0.00 0.00 0.00 80 1008.9
20260830170517 81 135 6.0 10.0 0.00 0.00 0.00 78 1009.1
20260830165517 80 135 6.0 10.0 0.00 0.00 0.00 82 1009.1
20260830164517 78 113 5.0 9.0 0.00 0.00 0.00 82 1009.1
20260830163517 78 113 4.0 6.0 0.00 0.00 0.00 83 1009.3
20260830162517 78 113 3.0 5.0 0.00 0.00 0.00 83 1009.1
20260830161517 77 90 3.0 8.0 0.00 0.00 0.00 84 1009.2
20260830160517 77 135 4.0 7.0 0.00 0.00 0.00 84 1009.2
20260830155517 77 135 3.0 6.0 0.00 0.00 0.00 84 1009.1
20260830154517 77 113 3.0 6.0 0.00 0.00 0.00 84 1009.2
20260830153517 76 113 5.0 8.0 0.00 0.00 0.00 85 1008.7
20260830152517 75 113 4.0 7.0 0.00 0.00 0.00 86 1008.7
20260830151517 75 113 4.0 9.0 0.00 0.00 0.00 86 1008.5
20260830150517 74 113 4.0 7.0 0.00 0.00 0.00 86 1008.6
20260830145517 74 113 4.0 8.0 0.00 0.00 0.00 86 1008.5
20260830144517 74 90 5.0 9.0 0.00 0.00 0.00 86 1008.4
20260830143517 74 90 6.0 10.0 0.00 0.00 0.00 87 1008.6
20260830142537 73 90 5.0 9.0 0.00 0.00 0.00 88 1008.8